[[{"header":{"parameterUnit":"m.s-1","parameterCategory":1,"la1":30.2991,"la2":30.254,"lo1":-89.0895,"lo2":-89.0444,"dy":0.0017,"dx":0.0017,"nx":28,"ny":28,"refTime":"2023-08-07T03:00:00:Z","depth":0,"parameterNumber":2,"parameterNumberName":"U-component_of_WINDS"},"data":[0,0,0,0,0,0,0,0,0,0,0,0,0,0,0,0,0,0,0,0,0,0,0,0,0,0,0,0,0,0,0,0,0,0,0,0,0,0,0,0,0,0,0,0,0,0,0,0,0,0,0,0,0,0,0,0,0,0,3.2724,3.2725,0,3.2832,3.2833,3.2834,3.2818,3.2817,3.2815,3.2813,3.2929,3.2934,3.2939,0,0,0,0,0,0,0,0,0,0,0,0,0,3.2509,3.2513,3.2724,3.2725,3.2726,3.2832,3.2833,3.2835,3.2819,3.2816,3.2814,3.2812,3.2928,3.2933,3.2939,0,0,0,0,0,0,0,0,0,0,0,0,0,3.2608,3.2514,3.2723,3.2731,3.2733,3.2831,3.2833,3.2835,3.2819,3.2816,3.2814,3.2811,3.2926,3.2933,3.294,3.3039,0,0,3.2962,3.2965,0,0,0,0,0,0,0,0,3.2603,3.2616,3.2729,3.2731,3.2733,3.2809,3.28,3.2904,3.282,3.2787,3.2813,3.281,3.2892,3.2902,3.2928,3.3045,3.305,3.2962,3.2967,3.297,3.2972,0,0,0,0,0,0,0,3.2596,3.2611,3.2767,3.273,3.2733,3.2731,3.2742,3.282,3.2853,3.2789,3.2788,3.2801,3.2892,3.2921,3.2931,3.3052,3.2962,3.2969,3.2973,3.2976,3.3257,3.326,0,0,0,0,0,0,3.2586,3.2606,3.2763,3.277,3.2659,3.2737,3.2749,3.2787,3.2852,3.286,3.2803,3.28,3.291,3.2922,3.2935,3.3056,3.297,3.2977,3.2981,3.3254,3.3258,3.3261,0,0,0,0,0,0,3.2581,3.26,3.2759,3.2688,3.2708,3.2743,3.2786,3.2791,3.2819,3.2863,3.287,3.2826,3.2908,3.2925,3.3013,3.306,3.298,3.2986,3.325,3.3255,3.3259,3.3299,0,0,0,0,0,0,3.2575,3.2599,3.2635,3.2688,3.2711,3.2834,3.2789,3.2795,3.2831,3.2828,3.2886,3.2893,3.2908,3.3003,3.3021,3.3068,3.2992,3.3246,3.3252,3.3258,3.3294,3.3305,3.3314,0,0,0,0,0,3.2568,3.2643,3.2637,3.2656,3.2758,3.2837,3.285,3.2863,3.2835,3.2873,3.2901,3.2891,3.3052,3.3012,3.3032,3.3082,3.3243,3.3251,3.3257,3.3289,3.3303,3.3314,0,0,0,0,0,0,3.2596,3.265,3.2644,3.2739,3.2783,3.2834,3.2882,3.2877,3.2931,3.2926,3.2942,3.2955,3.3046,3.3073,3.3028,3.3183,3.3144,3.3155,3.3161,3.3174,3.3184,3.3176,3.2998,0,0,0,0,0,3.2613,3.2671,3.2716,3.2795,3.2817,3.2846,3.2881,3.2887,3.2935,3.2954,3.2988,3.3036,3.3097,3.3137,3.3196,3.3298,3.3311,3.3343,3.3353,3.3361,3.3371,3.3427,3.3442,3.3284,3.3284,3.3284,0,0,3.2649,3.2686,3.2722,3.2802,3.2837,3.2898,3.2862,3.2928,3.2974,3.2964,3.305,3.3077,3.3132,3.3228,3.3272,3.3253,3.3417,3.337,3.3376,3.3381,3.3436,3.3451,3.3464,3.3289,3.3288,3.3287,0,0,3.2746,3.278,3.2849,3.2885,3.2938,3.2957,3.2974,3.3026,3.3043,3.3129,3.3123,3.3179,3.3284,3.3323,3.3357,3.347,3.3463,3.3489,3.3541,3.3596,3.3609,3.362,3.3661,3.3675,3.3499,3.3499,3.3499,0,3.2785,3.2875,3.2887,3.2953,3.2989,3.2982,3.3054,3.3089,3.3159,3.3185,3.3163,3.3295,3.3331,3.3436,3.3464,3.3491,3.3512,3.3482,3.3606,3.3617,3.3628,3.3667,3.3682,3.3501,3.3501,3.3501,3.3501,0,3.2921,3.2983,3.3034,3.31,3.3142,3.3211,3.3235,3.3276,3.3279,3.3301,3.3389,3.3432,3.35,3.3526,3.353,3.3632,3.3619,3.3602,3.3563,3.3645,3.3682,3.3697,3.3505,3.3504,3.3504,3.3503,0,0,3.3038,3.311,3.3128,3.3158,3.3217,3.3267,3.3336,3.3401,3.3436,3.3486,3.3545,3.3635,3.3619,3.3657,3.3666,3.3715,3.3802,3.3691,3.3693,3.371,3.3918,3.3931,3.3948,3.3798,3.3801,3.3803,3.3913,0,3.314,3.3261,3.3274,3.3383,3.3442,3.3436,3.3497,3.3541,3.3563,3.3618,3.3644,3.3707,3.3681,3.3704,3.3752,3.3781,3.3844,3.3774,3.3855,3.3858,3.3841,3.3967,3.398,3.4082,3.3928,3.3931,3.3932,0,3.3276,3.3328,3.3442,3.3493,3.3518,3.3572,3.3633,3.3685,3.3735,3.3748,3.3791,3.3794,3.3868,3.3826,3.3929,3.3881,3.3915,3.3935,3.3939,3.3947,3.39,3.3978,3.4115,3.413,3.3955,3.3953,3.3952,0,3.335,3.3449,3.353,3.3556,3.3617,3.3656,3.3684,3.3731,3.3769,3.3823,3.3848,3.3911,3.3945,3.3994,3.4015,3.3982,3.4117,3.4076,3.4131,3.413,3.4159,3.4157,3.4303,3.4181,3.4181,3.4181,3.4181,0,3.3463,3.3533,3.3564,3.3614,3.3693,3.3708,3.3786,3.3813,3.3855,3.3911,3.3912,3.3965,3.3988,3.4046,3.4063,3.4146,3.4162,3.4175,3.4179,3.4175,3.4173,3.4197,3.4191,3.4185,3.4184,3.4183,3.4183,0,3.3559,3.3582,3.367,3.3721,3.3736,3.3792,3.3836,3.3885,3.3907,3.3979,3.3997,3.4032,3.41,3.4125,3.4208,3.422,3.4316,3.4314,3.4298,3.4299,3.4351,3.4346,3.4518,3.4541,3.4405,3.4406,3.4407,0,3.3629,3.3683,3.374,3.3776,3.3805,3.3865,3.3904,3.3922,3.3962,3.4024,3.4066,3.4133,3.4188,3.4297,3.4331,3.4395,3.4394,3.445,3.4404,3.4399,3.4395,3.4391,3.4397,3.4459,3.446,3.4461,3.4462,0,3.3752,3.3761,3.3816,3.3875,3.3921,3.397,3.4016,3.4047,3.4072,3.4119,3.4187,3.4229,3.4314,3.4381,3.4446,3.4477,3.4475,3.4477,3.4492,3.4489,3.4477,3.4484,3.4321,3.4472,3.4471,3.4471,3.447,3.447,3.3837,3.3885,3.3932,3.3994,3.4031,3.4075,3.4123,3.4151,3.4208,3.4277,3.4285,3.4359,3.4409,3.4496,3.453,3.4589,3.4574,3.4598,3.4603,3.4609,3.4612,3.4468,3.4602,3.4601,3.4601,3.4601,3.4601,0,3.396,3.399,3.4047,3.4111,3.416,3.4152,3.4204,3.4246,3.431,3.4357,3.441,3.4489,3.4555,3.4594,3.466,3.47,3.4701,3.4717,3.4714,3.4721,3.4622,3.4601,3.4715,3.4715,3.4715,3.4715,3.4715,3.4715,3.4029,3.4109,3.4124,3.4223,3.4254,3.4324,3.4355,3.4396,3.4433,3.4521,3.4574,3.4599,3.4643,3.4713,3.4773,3.4783,3.4807,3.4825,3.4834,3.474,3.4728,3.4717,3.4698,3.483,3.483,3.4928,3.4929,3.4929]},{"header":{"parameterUnit":"m.s-1","parameterCategory":1,"la1":30.2991,"la2":30.254,"lo1":-89.0895,"lo2":-89.0444,"dy":0.0017,"dx":0.0017,"nx":28,"ny":28,"refTime":"2023-08-07T03:00:00:Z","depth":0,"parameterNumber":3,"parameterNumberName":"V-component_of_WINDS"},"data":[0,0,0,0,0,0,0,0,0,0,0,0,0,0,0,0,0,0,0,0,0,0,0,0,0,0,0,0,0,0,0,0,0,0,0,0,0,0,0,0,0,0,0,0,0,0,0,0,0,0,0,0,0,0,0,0,0,0,3.0148,3.0149,0,3.0212,3.0213,3.0214,3.0246,3.0246,3.0246,3.0246,3.0307,3.0309,3.0311,0,0,0,0,0,0,0,0,0,0,0,0,0,3.0047,3.0049,3.0148,3.0149,3.015,3.0212,3.0213,3.0214,3.0246,3.0246,3.0246,3.0246,3.0307,3.0309,3.0311,0,0,0,0,0,0,0,0,0,0,0,0,0,3.0099,3.005,3.0148,3.0173,3.0176,3.0212,3.0213,3.0214,3.0246,3.0246,3.0246,3.0246,3.0306,3.0309,3.0311,3.0326,0,0,3.0318,3.032,0,0,0,0,0,0,0,0,3.0096,3.0103,3.0169,3.0171,3.0175,3.0221,3.02,3.0251,3.0246,3.0219,3.0246,3.0246,3.0278,3.0283,3.0295,3.0328,3.0331,3.0319,3.032,3.0321,3.0322,0,0,0,0,0,0,0,3.0093,3.01,3.0173,3.0169,3.0173,3.0179,3.0187,3.021,3.0248,3.0221,3.0224,3.0231,3.028,3.0293,3.0297,3.0332,3.0319,3.0321,3.0322,3.0323,3.0378,3.0378,0,0,0,0,0,0,3.0086,3.0097,3.0171,3.0175,3.0135,3.0181,3.0189,3.0206,3.0248,3.0254,3.0231,3.0232,3.0288,3.0294,3.0299,3.0318,3.0321,3.0323,3.0325,3.0378,3.0378,3.0378,0,0,0,0,0,0,3.0083,3.0092,3.0169,3.0137,3.0147,3.0183,3.0201,3.0207,3.022,3.0255,3.0261,3.0237,3.0289,3.0295,3.0318,3.032,3.0325,3.0327,3.0378,3.0378,3.0378,3.0355,0,0,0,0,0,0,3.008,3.0091,3.0098,3.0137,3.0149,3.0189,3.0201,3.0209,3.0225,3.0227,3.0263,3.0268,3.0289,3.0315,3.0321,3.0324,3.0329,3.0378,3.0378,3.0378,3.0356,3.0355,3.0353,0,0,0,0,0,3.0077,3.0089,3.0099,3.0107,3.0159,3.0189,3.0196,3.022,3.0225,3.0231,3.0253,3.0267,3.0319,3.0317,3.0324,3.0327,3.0378,3.0378,3.0378,3.0357,3.0355,3.0353,0,0,0,0,0,0,3.0049,3.0095,3.0106,3.0132,3.0156,3.0194,3.0204,3.0218,3.0241,3.0242,3.027,3.0278,3.0298,3.0315,3.0312,3.0342,3.035,3.0351,3.0331,3.0329,3.0328,3.0323,3.0331,0,0,0,0,0,3.0046,3.0068,3.0106,3.0125,3.0137,3.0168,3.0182,3.0199,3.0225,3.0235,3.0259,3.0283,3.0304,3.0318,3.0339,3.0358,3.0366,3.0364,3.0363,3.0361,3.0362,3.0372,3.0371,3.0378,3.0378,3.0378,0,0,3.004,3.0068,3.008,3.012,3.0141,3.0162,3.0177,3.0198,3.0213,3.0238,3.0262,3.0279,3.0307,3.0328,3.0338,3.0343,3.0362,3.0361,3.036,3.0362,3.0371,3.0371,3.037,3.0378,3.0378,3.0378,0,0,3.004,3.0063,3.0081,3.0101,3.0133,3.0154,3.0157,3.0193,3.0206,3.023,3.0249,3.0266,3.0303,3.0322,3.0336,3.0339,3.0352,3.0345,3.0338,3.0347,3.0346,3.0346,3.0346,3.0346,3.0346,3.0346,3.0346,0,3.0028,3.0061,3.0088,3.0108,3.0124,3.0148,3.0165,3.0183,3.022,3.0229,3.0234,3.028,3.03,3.0325,3.0325,3.0336,3.034,3.0342,3.0344,3.0344,3.0344,3.0345,3.0345,3.0345,3.0345,3.0345,3.0345,0,3.0044,3.0066,3.0076,3.0112,3.0129,3.0147,3.0175,3.0188,3.0203,3.0222,3.0244,3.027,3.0296,3.0303,3.0317,3.0329,3.033,3.0339,3.0347,3.0342,3.0343,3.0343,3.0343,3.0344,3.0344,3.0344,0,0,3.003,3.0078,3.0081,3.0097,3.0133,3.015,3.0167,3.0194,3.0205,3.0228,3.0243,3.0272,3.028,3.0296,3.0313,3.032,3.032,3.0328,3.0329,3.0325,3.0332,3.0325,3.0324,3.0328,3.0328,3.0328,3.0329,0,3.0033,3.0069,3.0092,3.0117,3.0137,3.0159,3.0174,3.0196,3.0214,3.0231,3.025,3.027,3.028,3.0289,3.0298,3.0318,3.0321,3.0318,3.034,3.0341,3.0333,3.0325,3.0318,3.0318,3.033,3.033,3.033,0,3.0043,3.0067,3.0094,3.0126,3.0135,3.0149,3.0174,3.0191,3.0216,3.0227,3.0244,3.0261,3.0278,3.0284,3.0307,3.0305,3.0315,3.0326,3.0326,3.0329,3.0335,3.0327,3.0318,3.0318,3.0331,3.0331,3.033,0,3.0029,3.0067,3.0088,3.0101,3.0138,3.0147,3.0163,3.0188,3.0202,3.0223,3.0232,3.0254,3.0266,3.0282,3.0303,3.0306,3.0324,3.0332,3.0333,3.0332,3.0336,3.0336,3.0328,3.0343,3.0343,3.0343,3.0343,0,3.0031,3.0046,3.0082,3.0094,3.0111,3.0137,3.0152,3.017,3.0191,3.0206,3.0226,3.0239,3.0266,3.0282,3.0299,3.0314,3.032,3.0329,3.0333,3.0327,3.0326,3.0334,3.0334,3.0343,3.0343,3.0343,3.0343,0,3.0018,3.0043,3.0066,3.01,3.0108,3.0119,3.0147,3.0159,3.0177,3.0195,3.0201,3.0228,3.0248,3.027,3.0297,3.0308,3.0322,3.0328,3.0314,3.0316,3.0316,3.0315,3.0313,3.0314,3.0329,3.0328,3.0328,0,3.0018,3.003,3.0064,3.0076,3.0092,3.0111,3.0125,3.0149,3.0162,3.019,3.0198,3.0219,3.0238,3.0267,3.0288,3.0308,3.0315,3.0313,3.0318,3.0311,3.0314,3.0313,3.0313,3.0311,3.0311,3.0311,3.031,0,3.0014,3.0025,3.0045,3.0069,3.0085,3.0105,3.0125,3.0133,3.0161,3.0174,3.0195,3.0209,3.0236,3.0256,3.0278,3.0292,3.0305,3.0308,3.031,3.0304,3.0294,3.0298,3.031,3.0309,3.0309,3.0309,3.0309,3.0309,3.0007,3.0018,3.0044,3.0065,3.0082,3.01,3.0113,3.0132,3.015,3.0174,3.0187,3.0206,3.0228,3.0259,3.0273,3.0288,3.0292,3.0294,3.0294,3.0294,3.0292,3.0292,3.0292,3.0292,3.0292,3.0292,3.0292,0,3.0003,3.0021,3.004,3.0067,3.0083,3.0094,3.0117,3.0129,3.0146,3.0166,3.0183,3.0205,3.0224,3.0246,3.0266,3.0273,3.0279,3.0277,3.0277,3.028,3.0288,3.0284,3.0272,3.0272,3.0272,3.0272,3.0272,3.0272,3.0004,3.0023,3.0036,3.0063,3.008,3.01,3.0112,3.0127,3.0143,3.0167,3.0183,3.0198,3.0218,3.0239,3.0256,3.0261,3.0267,3.0263,3.0271,3.0278,3.0279,3.0281,3.0278,3.0265,3.0265,3.0262,3.0262,3.0262]}]]